UWE-3

Last updated on Sat Apr 13 2024 01:02:57 GMT+0100 (British Summer Time)

1 39446U 13066AG 24103.58507753 .00005051 00000+0 57594-3 0 9995 2 39446 97.7764 54.7932 0063534 75.4234 285.4016 14.85096399558967
UTC large
Height (km)
Speed (km/s)
/
Latitude / Longitude
Inclination (degrees)
Orbital Period (minutes)
Azimuth
Elevation
Range (km)
Doppler Factor

Next 0 passes for location: London (51.5072 / 0.1276)

Sorry there are no passes over London.